星链-36400(STARLINK-36400)

导读

STARLINK-36400是由美国发射的星链卫星,于2026年1月25日发射升空,隶属于SpaceX公司的星链星座项目。星链计划旨在构建全球卫星互联网星座,为全球范围内提供高速低延迟的互联网接入服务,该卫星进一步扩充了星链星座的在轨规模,助力完善全球覆盖网络布局。

基本信息
目录编号:
67575
目录名称:
STARLINK-36400
国际标识:
2026-016Q
轨道中心:
EARTH
卫星名称:
星链-36400
卫星全名:
星链-36400(STARLINK-36400)
卫星状态:
在轨 (已飞行223 天)
发射日期:
2026-01-25 UTC
国别 :
美国 (US)
星等 :
--
轨道信息
数据来源 国际轨道数据
星历时间: 2026-09-04T22:27:49+0800
14小时前
查看轨道信息
半长轴: 6843.683km
偏心率: 0.000072
轨道倾角: 97.285°
近地点辐角 123.528°
升交点赤经 306.485°
平近点角 236.604°
近地点: 465.053km
远地点: 466.039km
周期: 93.906分钟
每日圈数: 15.334442
详细信息
固有亮度:
5
最大亮度:
2.5
卫星平台:
Starlink V1.0
覆盖范围:
全球
运营商:
太空探索技术公司
运营商所在国:
美国
制造商(研发单位):
太空探索技术公司
制造商所在国:
美国
使用方式:
暂无
卫星简介
Starlink 计划是 SpaceX 推出的全球卫星互联网项目,通过发射低轨道卫星,为全球尤其是偏远地区提供高速、低延迟的互联网服务。自 2019 年起,Starlink 已部署数千颗卫星,旨在缩小全球数字鸿沟,推动互联网普及。该项目还为军事、航空等行业提供通信支持,带来广泛经济效益。
2D轨道图
3D轨道图
轨道高度分析图
轨道倾角分析图
轨道综合分析图
查看轨道综合分析图
交会数据列表
事件ID 空间交会对象 最接近时刻(TCA) 交会距离 交会风险概率(CRP) 交会风险指数(CRI) 操作
CDM_260905-141505-674806-757521
OBJECT F (56748)
2026-09-05T
14:15:39+0000
2.254 km
极远距离
2.104583E-6 低风险 0.41
CDM_260906-152606-488106-757521
OBJECT F (64881)
2026-09-06T
15:26:05+0000
2.211 km
极远距离
1.833259E-6 低风险 0.4
CDM_260906-115605-020406-757521
2026-09-06T
11:56:49+0000
2.723 km
极远距离
1.51998E-6 低风险 0.39
CDM_260902-030504-942706-757521
2026-09-02T
03:05:10+0000
2.741 km
极远距离
1.493932E-6 低风险 0.38
CDM_260907-115606-534206-757521
2026-09-07T
11:56:30+0000
2.711 km
极远距离
1.465488E-6 低风险 0.38
CDM_260905-152804-779306-757522
2026-09-05T
15:28:50+0000
2.804 km
极远距离
1.458137E-6 低风险 0.38
CDM_260906-134005-110906-757521
2026-09-06T
13:40:25+0000
2.750 km
极远距离
1.392963E-6 低风险 0.38
CDM_260907-133005-883106-757521
2026-09-07T
13:30:12+0000
2.839 km
极远距离
1.364356E-6 低风险 0.38